Voltar ao catálogo

STARLINK-34350

AtivoComunicaçõesVLEO
NORAD 64276·PAYLOAD·🇺🇸 United States

Lançado Jun 4, 2025 de Vandenberg Space Force Base

Loading…

Próximas Passagens (próximas 24 horas)

TLE

AtualizadoSource: CelesTrak SupGP

Época: Sep 15, 2026, 03:22 UTC

1 64276C 25120W   26258.14076389  .00037790  00000+0  11165-2 0  2585
2 64276  53.1598 311.0089 0001368  92.1563 218.0866 15.34372685    10

Acompanhe STARLINK-34350 em tempo real com AllMySat

Download on the App Store